User: anonymous   Login
Location: Muenchen
(48.1800°N, 11.5800°E)
Time: 11:36:55
(UTC+01:00)
Language:

Cosmos 2233 Rocket - Orbit

View from above orbital plane
View from above orbital plane
View from above satellite
View from above satellite

Ground track
Ground track

The orbit data is extracted from the following two-line orbital elements,

1 22488U 93008B   18021.30671333  .00000009  00000-0 -58656-5 0  9997
2 22488  82.9429 276.1071 0025048 336.7884 162.3768 13.77730750254297
Epoch (UTC): 21 January 2018 07:21:40
Eccentricity: 0.0025048
inclination: 82.9429°
perigee height: 953 km
apogee height: 990 km
right ascension of ascending node: 276.1071°
argument of perigee: 336.7884°
revolutions per day: 13.77730750
mean anomaly at epoch: 162.3768°
orbit number at epoch: 25429

The dashed part of the orbit path shows where the satellite is in the earth's shadow,  

DLR